Location: Unspecified
(49.9820°N, 20.4363°E)
Time: 14:35:32
(UTC+02:00)

ISS - Pass Details

Date: 22 May 2018
Orbit: 402 x 407 km, 51.6° (Epoch: 22 May)

Event Time Altitude Azimuth Distance (km) Brightness Sun altitude
Rises 01:29:22 0° 283° (WNW) 2,321 0.0 -18.7°
Reaches altitude 10° 01:31:27 10° 285° (WNW) 1,460 -1.0 -18.6°
Maximum altitude 01:34:44 75° 12° (NNE) 421 -3.7 -18.4°
Drops below altitude 10° 01:37:59 10° 98° (E) 1,456 -0.9 -18.3°
Sets 01:40:04 0° 100° (E) 2,314 0.1 -18.2°
